ATLAS 5 CENTAUR DEB, 46606

Orbit data source: Space-Track

ATLAS 5 CENTAUR DEB, 46606 is space debris in HEO originally from a launch on Wed, 17 Oct 2018 UTC launched from the Air Force Eastern Test Range (AFETR). Debris objects in space refer to the collection of defunct objects orbiting the Earth. Examples of debris include non-operational satellites, rocket bodies, and fragments generated from explosions, collisions, or faulty payload assembly.

Loading next visibility...
Identifier
46606, 2018-079CE
Orbit
HEO
Country
Flag of USUS
Related business
Flag of USUnited Launch Alliance/Lockheed Martin (US)
Manufacturer
ULA Decatur
Mission
Spacecraft
Bus & Motor
Unknown
Mass
Unknown
Launch date (UTC)
2018-10-17 (7 years ago)
Launch vehicle
Unknown
Launch site
Air Force Eastern Test Range (AFETR)
Object type
Payload
Rocket body
Debris
Shape & HBR
Unknown shape, 1.1 m
Radar Cross Section
Small (<0.1 m²)

Expand to show TLE details & history
Last TLE update: 2 days ago

TLE from 2 days ago
0 ATLAS 5 CENTAUR DEB
1 46606U 18079CE  25345.53783721 -.00000086  00000-0  00000+0 0  9996
2 46606  13.3156  55.0412 4652546 270.8306  38.0730  1.79382546 39332
Epoch: 2025-12-11T12:54Z
TLE epoch observation values (Epoch: 2025-12-11T12:54:29.134Z)
Latitude
0.00001°
Longitude
140.87654°
Altitude
15,915.535 km
Speed
4.672 km/s
True Right ascension
03h 39m 57s
True Declination
0° 00' 00"
Sunlit
Object was in daylight at epoch
Visualization orbit readout
Latitude
Unknown
Longitude
Unknown
Altitude
Unknown
Speed
Unknown
Apparent Right ascension
Unknown
Apparent Declination
Unknown
Sunlit
N/A
Visualization observer readout
Local Sidereal Time
10:44:59
Azimuth
Unknown
Elevation
Unknown
Doppler factor
Unknown
Orbital elements
Apogee altitude
35,548.763 km
Perigee altitude
8,923.106 km
Semi-major axis
28,614.072 km
Eccentricity
0.46525
Inclination
13.3156°
RAAN
55.0412°
Arg. of periapsis
270.8306°
True anomaly
89.1229°
Mean anomaly
38.073°
Eccentric anomaly
61.49966°
Mean motion
0.44841 °/min
Orbital period
802.84 mins
BSTAR
0
Loading maneuver chart data...
Computing Atmospheric mass density...

Documentation

Showing up to 5 results
|